| time (UTC) | temp F | wind direction | speed MPH | gust MPH | rain 1hr in | rain 24hr in | rain mn in | humidity % | barometer mb |
| 20260509103307 | 57 | 158 | 0.0 | 1.0 | 0.00 | 0.00 | 0.00 | 88 | 1028.6 |
| 20260509102807 | 57 | 132 | 1.0 | 1.0 | 0.00 | 0.00 | 0.00 | 89 | 1028.6 |
| 20260509102306 | 57 | 112 | 0.0 | 0.0 | 0.00 | 0.00 | 0.00 | 89 | 1028.6 |
| 20260509101806 | 57 | 112 | 0.0 | 0.0 | 0.00 | 0.00 | 0.00 | 89 | 1028.8 |
| 20260509101308 | 57 | 112 | 0.0 | 0.0 | 0.00 | 0.00 | 0.00 | 89 | 1028.7 |
| 20260509100807 | 57 | 112 | 0.0 | 0.0 | 0.00 | 0.00 | 0.00 | 90 | 1028.9 |
| 20260509100307 | 56 | 112 | 0.0 | 1.0 | 0.00 | 0.00 | 0.00 | 90 | 1028.8 |
| 20260509095807 | 56 | 112 | 0.0 | 1.0 | 0.00 | 0.00 | 0.00 | 90 | 1028.8 |
| 20260509094807 | 56 | 112 | 0.0 | 1.0 | 0.00 | 0.00 | 0.00 | 90 | 1028.7 |
| 20260509093807 | 56 | 90 | 0.0 | 1.0 | 0.00 | 0.00 | 0.00 | 90 | 1028.5 |
| 20260509093307 | 56 | 90 | 0.0 | 1.0 | 0.00 | 0.00 | 0.00 | 90 | 1028.7 |
| 20260509092807 | 56 | 90 | 0.0 | 0.0 | 0.00 | 0.00 | 0.00 | 90 | 1028.6 |
| 20260509092308 | 56 | 90 | 0.0 | 0.0 | 0.00 | 0.00 | 0.00 | 90 | 1028.5 |
| 20260509091307 | 55 | 90 | 0.0 | 1.0 | 0.00 | 0.00 | 0.00 | 90 | 1028.4 |
| 20260509090807 | 55 | 90 | 0.0 | 0.0 | 0.00 | 0.00 | 0.00 | 89 | 1028.3 |
| 20260509090307 | 54 | 90 | 0.0 | 0.0 | 0.00 | 0.00 | 0.00 | 89 | 1028.5 |
| 20260509085808 | 54 | 90 | 0.0 | 0.0 | 0.00 | 0.00 | 0.00 | 88 | 1028.4 |
| 20260509085307 | 54 | 90 | 0.0 | 0.0 | 0.00 | 0.00 | 0.00 | 88 | 1028.5 |
| 20260509084807 | 55 | 90 | 0.0 | 0.0 | 0.00 | 0.00 | 0.00 | 88 | 1028.3 |
| 20260509084308 | 55 | 90 | 0.0 | 0.0 | 0.00 | 0.00 | 0.00 | 88 | 1028.3 |
| 20260509083807 | 55 | 90 | 0.0 | 0.0 | 0.00 | 0.00 | 0.00 | 88 | 1028.4 |
| 20260509083308 | 56 | 90 | 0.0 | 0.0 | 0.00 | 0.00 | 0.00 | 88 | 1028.2 |
| 20260509081307 | 56 | 90 | 0.0 | 0.0 | 0.00 | 0.00 | 0.00 | 86 | 1028.0 |
| 20260509080807 | 57 | 90 | 0.0 | 0.0 | 0.00 | 0.00 | 0.00 | 86 | 1028.0 |
| 20260509080307 | 57 | 90 | 0.0 | 2.0 | 0.00 | 0.00 | 0.00 | 86 | 1027.7 |
| 20260509075806 | 57 | 112 | 0.0 | 0.0 | 0.00 | 0.00 | 0.00 | 85 | 1027.9 |
| 20260509075307 | 57 | 112 | 0.0 | 3.0 | 0.00 | 0.00 | 0.00 | 85 | 1027.8 |
| 20260509073308 | 58 | 120 | 1.0 | 2.0 | 0.00 | 0.00 | 0.00 | 83 | 1027.5 |
| 20260509072808 | 58 | 112 | 1.0 | 3.0 | 0.00 | 0.00 | 0.00 | 82 | 1027.5 |
| 20260509072308 | 59 | 106 | 2.0 | 6.0 | 0.00 | 0.00 | 0.00 | 82 | 1027.3 |
| 20260509071807 | 59 | 199 | 1.0 | 5.0 | 0.00 | 0.00 | 0.00 | 81 | 1027.4 |
| 20260509071307 | 59 | 178 | 1.0 | 3.0 | 0.00 | 0.00 | 0.00 | 79 | 1027.4 |
| 20260509070808 | 60 | 135 | 1.0 | 3.0 | 0.00 | 0.00 | 0.00 | 79 | 1027.3 |
| 20260509070307 | 60 | 180 | 2.0 | 3.0 | 0.00 | 0.00 | 0.00 | 78 | 1027.3 |
| 20260509065807 | 60 | 156 | 2.0 | 3.0 | 0.00 | 0.00 | 0.00 | 76 | 1027.3 |
| 20260509065307 | 60 | 119 | 2.0 | 5.0 | 0.00 | 0.00 | 0.00 | 76 | 1027.4 |
| 20260509064808 | 60 | 119 | 3.0 | 5.0 | 0.00 | 0.00 | 0.00 | 76 | 1027.3 |
| 20260509064308 | 60 | 200 | 2.0 | 5.0 | 0.00 | 0.00 | 0.00 | 75 | 1027.2 |
| 20260509063807 | 60 | 118 | 2.0 | 5.0 | 0.00 | 0.00 | 0.00 | 75 | 1027.0 |
| 20260509063306 | 61 | 140 | 2.0 | 6.0 | 0.00 | 0.00 | 0.00 | 75 | 1027.2 |
| 20260509062807 | 61 | 135 | 2.0 | 5.0 | 0.00 | 0.00 | 0.00 | 75 | 1027.1 |
| 20260509062307 | 61 | 130 | 3.0 | 8.0 | 0.00 | 0.00 | 0.00 | 75 | 1027.0 |
| 20260509061807 | 61 | 92 | 3.0 | 6.0 | 0.00 | 0.00 | 0.00 | 75 | 1027.2 |
| 20260509061308 | 61 | 135 | 2.0 | 5.0 | 0.00 | 0.00 | 0.00 | 73 | 1027.1 |
| 20260509060807 | 61 | 90 | 2.0 | 6.0 | 0.00 | 0.00 | 0.00 | 73 | 1027.1 |
| 20260509060307 | 62 | 160 | 2.0 | 6.0 | 0.00 | 0.00 | 0.00 | 72 | 1027.1 |
| 20260509055807 | 62 | 133 | 3.0 | 6.0 | 0.00 | 0.00 | 0.00 | 71 | 1027.0 |
| 20260509054807 | 62 | 95 | 1.0 | 7.0 | 0.00 | 0.00 | 0.00 | 71 | 1026.9 |
| 20260509053807 | 63 | 52 | 3.0 | 5.0 | 0.00 | 0.00 | 0.00 | 70 | 1026.8 |
| 20260509053307 | 62 | 115 | 2.0 | 6.0 | 0.00 | 0.00 | 0.00 | 71 | 1027.0 |
| 20260509052807 | 62 | 222 | 3.0 | 6.0 | 0.00 | 0.00 | 0.00 | 72 | 1026.8 |
| 20260509052307 | 62 | 145 | 3.0 | 7.0 | 0.00 | 0.00 | 0.00 | 72 | 1026.9 |
| 20260509051807 | 62 | 138 | 3.0 | 5.0 | 0.00 | 0.00 | 0.00 | 72 | 1027.0 |
| 20260509051306 | 62 | 237 | 3.0 | 7.0 | 0.00 | 0.00 | 0.00 | 72 | 1026.8 |
| 20260509050306 | 62 | 158 | 2.0 | 7.0 | 0.00 | 0.00 | 0.00 | 72 | 1026.9 |
| 20260509045806 | 62 | 200 | 3.0 | 7.0 | 0.00 | 0.00 | 0.00 | 71 | 1027.0 |
| 20260509045307 | 62 | 134 | 3.0 | 8.0 | 0.00 | 0.00 | 0.00 | 71 | 1027.1 |
| 20260509044806 | 62 | 135 | 3.0 | 8.0 | 0.00 | 0.00 | 0.00 | 71 | 1027.2 |
| 20260509043807 | 62 | 246 | 2.0 | 7.0 | 0.00 | 0.00 | 0.00 | 71 | 1027.0 |
| 20260509043308 | 62 | 156 | 2.0 | 5.0 | 0.00 | 0.00 | 0.00 | 71 | 1026.8 |
| 20260509042807 | 62 | 223 | 1.0 | 5.0 | 0.00 | 0.00 | 0.00 | 71 | 1027.0 |
| 20260509042307 | 62 | 223 | 3.0 | 7.0 | 0.00 | 0.00 | 0.00 | 70 | 1027.0 |
| 20260509041806 | 62 | 123 | 2.0 | 5.0 | 0.00 | 0.00 | 0.00 | 70 | 1027.1 |
| 20260509040807 | 62 | 135 | 3.0 | 5.0 | 0.00 | 0.00 | 0.00 | 71 | 1027.2 |
| 20260509035807 | 62 | 158 | 3.0 | 7.0 | 0.00 | 0.00 | 0.00 | 71 | 1026.9 |
| 20260509035307 | 62 | 222 | 3.0 | 7.0 | 0.00 | 0.00 | 0.00 | 71 | 1027.0 |
| 20260509034806 | 62 | 246 | 3.0 | 6.0 | 0.00 | 0.00 | 0.00 | 71 | 1027.0 |
| 20260509034308 | 62 | 177 | 2.0 | 5.0 | 0.00 | 0.00 | 0.00 | 72 | 1026.9 |
| 20260509033807 | 61 | 138 | 2.0 | 5.0 | 0.00 | 0.00 | 0.00 | 73 | 1027.2 |
| 20260509033306 | 61 | 157 | 3.0 | 6.0 | 0.00 | 0.00 | 0.00 | 73 | 1027.3 |
| 20260509032806 | 61 | 180 | 3.0 | 5.0 | 0.00 | 0.00 | 0.00 | 73 | 1027.3 |
| 20260509032307 | 61 | 144 | 3.0 | 7.0 | 0.00 | 0.00 | 0.00 | 74 | 1027.1 |
| 20260509031806 | 61 | 226 | 3.0 | 8.0 | 0.00 | 0.00 | 0.00 | 73 | 1027.2 |
| 20260509030808 | 61 | 248 | 3.0 | 7.0 | 0.00 | 0.00 | 0.00 | 73 | 1027.5 |
| 20260509025807 | 62 | 225 | 2.0 | 5.0 | 0.00 | 0.00 | 0.00 | 73 | 1027.5 |
| 20260509025307 | 62 | 225 | 2.0 | 5.0 | 0.00 | 0.00 | 0.00 | 73 | 1027.7 |
| 20260509024807 | 60 | 226 | 2.0 | 7.0 | 0.00 | 0.00 | 0.00 | 74 | 1027.7 |
| 20260509024306 | 61 | 160 | 3.0 | 7.0 | 0.00 | 0.00 | 0.00 | 75 | 1027.7 |
| 20260509023807 | 61 | 118 | 3.0 | 6.0 | 0.00 | 0.00 | 0.00 | 74 | 1027.8 |
| 20260509023307 | 60 | 263 | 2.0 | 6.0 | 0.00 | 0.00 | 0.00 | 76 | 1027.8 |
| 20260509022807 | 60 | 223 | 3.0 | 9.0 | 0.00 | 0.00 | 0.00 | 76 | 1027.8 |
| 20260509022307 | 60 | 185 | 2.0 | 7.0 | 0.00 | 0.00 | 0.00 | 77 | 1028.0 |
| 20260509021806 | 60 | 220 | 3.0 | 5.0 | 0.00 | 0.00 | 0.00 | 76 | 1028.0 |
| 20260509021307 | 60 | 199 | 2.0 | 5.0 | 0.00 | 0.00 | 0.00 | 78 | 1028.0 |
| 20260509020807 | 59 | 200 | 3.0 | 8.0 | 0.00 | 0.00 | 0.00 | 78 | 1028.1 |
| 20260509020307 | 59 | 205 | 3.0 | 8.0 | 0.00 | 0.00 | 0.00 | 79 | 1028.3 |
| 20260509015807 | 59 | 113 | 3.0 | 6.0 | 0.00 | 0.00 | 0.00 | 81 | 1028.1 |
| 20260509015308 | 58 | 179 | 3.0 | 9.0 | 0.00 | 0.00 | 0.00 | 82 | 1028.2 |
| 20260509014807 | 59 | 244 | 5.0 | 9.0 | 0.00 | 0.00 | 0.00 | 81 | 1028.4 |
| 20260509014307 | 59 | 185 | 2.0 | 6.0 | 0.00 | 0.00 | 0.00 | 80 | 1028.3 |
| 20260509013308 | 60 | 267 | 3.0 | 9.0 | 0.00 | 0.00 | 0.00 | 79 | 1028.2 |
| 20260509012807 | 59 | 291 | 2.0 | 5.0 | 0.00 | 0.00 | 0.00 | 80 | 1028.3 |
| 20260509012308 | 59 | 248 | 2.0 | 3.0 | 0.00 | 0.00 | 0.00 | 82 | 1028.4 |
| 20260509011808 | 58 | 290 | 3.0 | 5.0 | 0.00 | 0.00 | 0.00 | 82 | 1028.6 |
| 20260509011307 | 58 | 45 | 3.0 | 7.0 | 0.00 | 0.00 | 0.00 | 82 | 1028.5 |
| 20260509010807 | 58 | 270 | 2.0 | 6.0 | 0.00 | 0.00 | 0.00 | 83 | 1028.5 |
| 20260509010307 | 58 | 92 | 2.0 | 6.0 | 0.00 | 0.00 | 0.00 | 82 | 1028.5 |
| 20260509005807 | 58 | 205 | 2.0 | 5.0 | 0.00 | 0.00 | 0.00 | 84 | 1028.5 |
| 20260509005308 | 57 | 206 | 2.0 | 5.0 | 0.00 | 0.00 | 0.00 | 85 | 1028.3 |
| 20260509004807 | 57 | 203 | 2.0 | 6.0 | 0.00 | 0.00 | 0.00 | 85 | 1028.4 |
| 20260509004307 | 57 | 227 | 3.0 | 7.0 | 0.00 | 0.00 | 0.00 | 85 | 1028.2 |
| 20260509003808 | 58 | 161 | 2.0 | 5.0 | 0.00 | 0.00 | 0.00 | 84 | 1028.3 |
| 20260509003307 | 57 | 287 | 1.0 | 7.0 | 0.00 | 0.00 | 0.00 | 85 | 1028.3 |
| 20260509002807 | 57 | 221 | 3.0 | 7.0 | 0.00 | 0.00 | 0.00 | 84 | 1028.5 |
| 20260509002308 | 57 | 160 | 2.0 | 5.0 | 0.00 | 0.00 | 0.00 | 85 | 1028.4 |
| 20260509001807 | 57 | 226 | 2.0 | 5.0 | 0.00 | 0.00 | 0.00 | 86 | 1028.5 |
| 20260509001307 | 57 | 227 | 1.0 | 5.0 | 0.00 | 0.00 | 0.00 | 86 | 1028.2 |
| 20260509000806 | 57 | 225 | 1.0 | 3.0 | 0.00 | 0.00 | 0.00 | 87 | 1028.5 |
| 20260508234807 | 55 | 219 | 2.0 | 5.0 | 0.00 | 0.00 | 0.00 | 90 | 1028.5 |
| 20260508234307 | 55 | 204 | 1.0 | 3.0 | 0.00 | 0.00 | 0.00 | 91 | 1028.5 |
| 20260508233808 | 55 | 190 | 2.0 | 7.0 | 0.00 | 0.00 | 0.00 | 91 | 1028.3 |
| 20260508233307 | 55 | 138 | 3.0 | 6.0 | 0.00 | 0.00 | 0.00 | 91 | 1028.4 |
| 20260508232807 | 55 | 205 | 1.0 | 3.0 | 0.00 | 0.00 | 0.00 | 92 | 1028.5 |
| 20260508232307 | 55 | 228 | 1.0 | 5.0 | 0.00 | 0.00 | 0.00 | 92 | 1028.5 |
| 20260508231807 | 55 | 289 | 1.0 | 2.0 | 0.00 | 0.00 | 0.00 | 93 | 1028.4 |
| 20260508231308 | 54 | 248 | 1.0 | 3.0 | 0.00 | 0.00 | 0.00 | 93 | 1028.5 |
| 20260508230807 | 54 | 248 | 1.0 | 3.0 | 0.00 | 0.00 | 0.00 | 93 | 1028.2 |
| 20260508230308 | 54 | 265 | 2.0 | 3.0 | 0.00 | 0.00 | 0.00 | 94 | 1028.1 |
| 20260508225307 | 54 | 248 | 3.0 | 6.0 | 0.00 | 0.00 | 0.00 | 94 | 1028.1 |
| 20260508224807 | 54 | 314 | 2.0 | 6.0 | 0.00 | 0.00 | 0.00 | 94 | 1028.2 |
| 20260508224308 | 54 | 250 | 1.0 | 3.0 | 0.00 | 0.00 | 0.00 | 94 | 1028.1 |
| 20260508222807 | 54 | 230 | 1.0 | 5.0 | 0.00 | 0.00 | 0.00 | 94 | 1028.0 |
| 20260508222307 | 54 | 248 | 2.0 | 5.0 | 0.00 | 0.00 | 0.00 | 94 | 1028.0 |
| 20260508221808 | 54 | 205 | 1.0 | 3.0 | 0.00 | 0.00 | 0.00 | 94 | 1028.0 |
| 20260508221307 | 53 | 269 | 1.0 | 3.0 | 0.00 | 0.00 | 0.00 | 94 | 1027.9 |
| 20260508220807 | 53 | 245 | 3.0 | 5.0 | 0.00 | 0.00 | 0.00 | 94 | 1027.8 |
| 20260508220307 | 53 | 268 | 1.0 | 5.0 | 0.00 | 0.00 | 0.00 | 94 | 1027.8 |
| 20260508215808 | 53 | 272 | 1.0 | 5.0 | 0.00 | 0.00 | 0.00 | 94 | 1027.7 |
| 20260508215308 | 53 | 250 | 1.0 | 3.0 | 0.00 | 0.00 | 0.00 | 94 | 1027.8 |
| 20260508214807 | 53 | 267 | 1.0 | 3.0 | 0.00 | 0.00 | 0.00 | 94 | 1027.4 |
| 20260508213307 | 53 | 250 | 1.0 | 2.0 | 0.00 | 0.00 | 0.00 | 94 | 1027.6 |
| 20260508212807 | 53 | 260 | 2.0 | 3.0 | 0.00 | 0.00 | 0.00 | 94 | 1027.6 |
| 20260508212307 | 53 | 263 | 1.0 | 2.0 | 0.00 | 0.00 | 0.00 | 94 | 1027.5 |
| 20260508211807 | 53 | 287 | 1.0 | 2.0 | 0.00 | 0.00 | 0.00 | 93 | 1027.7 |
| 20260508211308 | 53 | 266 | 1.0 | 2.0 | 0.00 | 0.00 | 0.00 | 93 | 1027.8 |
| 20260508210807 | 53 | 289 | 1.0 | 2.0 | 0.00 | 0.00 | 0.00 | 93 | 1027.4 |
| 20260508210307 | 53 | 227 | 1.0 | 1.0 | 0.00 | 0.00 | 0.00 | 93 | 1027.4 |
| 20260508205807 | 53 | 248 | 1.0 | 2.0 | 0.00 | 0.00 | 0.00 | 93 | 1027.5 |
| 20260508204806 | 53 | 288 | 1.0 | 2.0 | 0.00 | 0.00 | 0.00 | 93 | 1027.3 |
| 20260508204308 | 53 | 249 | 1.0 | 2.0 | 0.00 | 0.00 | 0.00 | 93 | 1027.3 |
| 20260508203807 | 53 | 270 | 0.0 | 2.0 | 0.00 | 0.00 | 0.00 | 93 | 1027.2 |
| 20260508203307 | 53 | 248 | 1.0 | 2.0 | 0.00 | 0.00 | 0.00 | 93 | 1027.0 |
| 20260508202807 | 53 | 264 | 1.0 | 2.0 | 0.00 | 0.00 | 0.00 | 93 | 1027.1 |
| 20260508202307 | 53 | 270 | 1.0 | 3.0 | 0.00 | 0.00 | 0.00 | 92 | 1027.0 |
| 20260508201806 | 53 | 226 | 1.0 | 3.0 | 0.00 | 0.00 | 0.00 | 92 | 1026.9 |
| 20260508200808 | 53 | 204 | 2.0 | 7.0 | 0.00 | 0.00 | 0.00 | 92 | 1026.9 |
| 20260508200306 | 53 | 270 | 1.0 | 2.0 | 0.00 | 0.00 | 0.00 | 92 | 1026.9 |
| 20260508195807 | 53 | 248 | 1.0 | 3.0 | 0.00 | 0.00 | 0.00 | 92 | 1026.8 |
| 20260508194308 | 53 | 311 | 0.0 | 3.0 | 0.00 | 0.00 | 0.00 | 92 | 1026.8 |
| 20260508193306 | 53 | 253 | 1.0 | 1.0 | 0.00 | 0.00 | 0.00 | 92 | 1026.6 |
| 20260508192807 | 53 | 276 | 1.0 | 1.0 | 0.00 | 0.00 | 0.00 | 92 | 1026.7 |
| 20260508192308 | 53 | 268 | 1.0 | 1.0 | 0.00 | 0.00 | 0.00 | 92 | 1026.5 |
| 20260508191308 | 53 | 290 | 0.0 | 1.0 | 0.00 | 0.00 | 0.00 | 92 | 1026.5 |
| 20260508190307 | 53 | 270 | 0.0 | 1.0 | 0.00 | 0.00 | 0.00 | 92 | 1026.5 |
| 20260508185807 | 53 | 270 | 0.0 | 1.0 | 0.00 | 0.00 | 0.00 | 92 | 1026.4 |
| 20260508185307 | 53 | 247 | 1.0 | 1.0 | 0.00 | 0.00 | 0.00 | 92 | 1026.4 |
| 20260508184308 | 53 | 270 | 1.0 | 2.0 | 0.00 | 0.00 | 0.00 | 92 | 1026.5 |
| 20260508183806 | 53 | 270 | 1.0 | 2.0 | 0.00 | 0.00 | 0.00 | 92 | 1026.3 |
| 20260508183308 | 53 | 249 | 1.0 | 1.0 | 0.00 | 0.00 | 0.00 | 91 | 1026.5 |
| 20260508182807 | 53 | 250 | 1.0 | 2.0 | 0.00 | 0.00 | 0.00 | 91 | 1026.1 |
| 20260508181806 | 53 | 230 | 1.0 | 2.0 | 0.00 | 0.00 | 0.00 | 91 | 1026.1 |
| 20260508181308 | 53 | 286 | 1.0 | 2.0 | 0.00 | 0.00 | 0.00 | 91 | 1026.1 |
| 20260508180807 | 53 | 250 | 1.0 | 3.0 | 0.00 | 0.00 | 0.00 | 91 | 1026.0 |
| 20260508180306 | 53 | 246 | 1.0 | 2.0 | 0.00 | 0.00 | 0.00 | 91 | 1026.2 |
| 20260508175307 | 53 | 247 | 1.0 | 3.0 | 0.00 | 0.00 | 0.00 | 90 | 1026.1 |
| 20260508174308 | 53 | 269 | 1.0 | 2.0 | 0.00 | 0.00 | 0.00 | 90 | 1026.1 |
| 20260508173806 | 53 | 292 | 1.0 | 2.0 | 0.00 | 0.00 | 0.00 | 89 | 1026.1 |
| 20260508173308 | 53 | 250 | 1.0 | 3.0 | 0.00 | 0.00 | 0.00 | 90 | 1026.0 |
| 20260508172807 | 53 | 270 | 1.0 | 2.0 | 0.00 | 0.00 | 0.00 | 90 | 1026.0 |
| 20260508171308 | 53 | 204 | 2.0 | 3.0 | 0.00 | 0.00 | 0.00 | 90 | 1026.3 |
| 20260508170807 | 53 | 252 | 1.0 | 3.0 | 0.00 | 0.00 | 0.00 | 90 | 1026.1 |
| 20260508170307 | 53 | 206 | 1.0 | 2.0 | 0.00 | 0.00 | 0.00 | 89 | 1026.0 |
| 20260508165808 | 53 | 269 | 1.0 | 2.0 | 0.00 | 0.00 | 0.00 | 89 | 1026.1 |
| 20260508165307 | 53 | 266 | 1.0 | 2.0 | 0.00 | 0.00 | 0.00 | 89 | 1025.9 |
| 20260508164308 | 53 | 251 | 1.0 | 3.0 | 0.00 | 0.00 | 0.00 | 89 | 1026.0 |
| 20260508163806 | 53 | 263 | 1.0 | 2.0 | 0.00 | 0.00 | 0.00 | 88 | 1026.0 |
| 20260508163307 | 53 | 225 | 0.0 | 1.0 | 0.00 | 0.00 | 0.00 | 88 | 1025.9 |
| 20260508162807 | 53 | 230 | 1.0 | 3.0 | 0.00 | 0.00 | 0.00 | 88 | 1026.0 |
| 20260508161307 | 53 | 290 | 1.0 | 3.0 | 0.00 | 0.00 | 0.00 | 88 | 1026.1 |
| 20260508160306 | 53 | 249 | 1.0 | 2.0 | 0.00 | 0.00 | 0.00 | 87 | 1026.0 |
| 20260508155807 | 53 | 253 | 1.0 | 2.0 | 0.00 | 0.00 | 0.00 | 87 | 1025.9 |
| 20260508155307 | 53 | 290 | 1.0 | 2.0 | 0.00 | 0.00 | 0.00 | 87 | 1025.9 |
| 20260508154307 | 53 | 270 | 1.0 | 2.0 | 0.00 | 0.00 | 0.00 | 87 | 1025.8 |
| 20260508153807 | 54 | 282 | 1.0 | 3.0 | 0.00 | 0.00 | 0.00 | 87 | 1025.6 |
| 20260508153307 | 54 | 227 | 1.0 | 3.0 | 0.00 | 0.00 | 0.00 | 87 | 1025.8 |
| 20260508152307 | 54 | 269 | 1.0 | 5.0 | 0.00 | 0.00 | 0.00 | 86 | 1025.8 |
| 20260508151806 | 54 | 271 | 1.0 | 3.0 | 0.00 | 0.00 | 0.00 | 86 | 1025.8 |
| 20260508150807 | 54 | 251 | 1.0 | 2.0 | 0.00 | 0.00 | 0.00 | 86 | 1026.0 |
| 20260508150307 | 54 | 290 | 0.0 | 1.0 | 0.00 | 0.00 | 0.00 | 86 | 1026.0 |
| 20260508144807 | 54 | 245 | 1.0 | 2.0 | 0.00 | 0.00 | 0.00 | 85 | 1025.8 |
| 20260508144307 | 54 | 268 | 1.0 | 3.0 | 0.00 | 0.00 | 0.00 | 84 | 1025.9 |
| 20260508143807 | 54 | 267 | 1.0 | 2.0 | 0.00 | 0.00 | 0.00 | 84 | 1026.1 |
| 20260508143308 | 54 | 248 | 1.0 | 3.0 | 0.00 | 0.00 | 0.00 | 84 | 1025.9 |
| 20260508141806 | 55 | 244 | 1.0 | 3.0 | 0.00 | 0.00 | 0.00 | 84 | 1025.9 |
| 20260508141307 | 55 | 228 | 1.0 | 5.0 | 0.00 | 0.00 | 0.00 | 84 | 1025.9 |
| 20260508140807 | 55 | 268 | 2.0 | 6.0 | 0.00 | 0.00 | 0.00 | 84 | 1026.0 |
| 20260508135807 | 55 | 288 | 1.0 | 3.0 | 0.00 | 0.00 | 0.00 | 85 | 1025.8 |
| 20260508135308 | 55 | 225 | 1.0 | 5.0 | 0.00 | 0.00 | 0.00 | 85 | 1026.0 |
| 20260508134307 | 55 | 269 | 2.0 | 5.0 | 0.00 | 0.00 | 0.00 | 85 | 1026.0 |
| 20260508133806 | 55 | 266 | 2.0 | 5.0 | 0.00 | 0.00 | 0.00 | 84 | 1025.9 |
| 20260508132807 | 55 | 248 | 2.0 | 5.0 | 0.00 | 0.00 | 0.00 | 83 | 1026.0 |
| 20260508132307 | 55 | 270 | 2.0 | 6.0 | 0.00 | 0.00 | 0.00 | 83 | 1025.9 |
| 20260508131807 | 55 | 289 | 2.0 | 5.0 | 0.00 | 0.00 | 0.00 | 83 | 1026.0 |
| 20260508131308 | 55 | 232 | 1.0 | 7.0 | 0.00 | 0.00 | 0.00 | 82 | 1026.0 |
| 20260508130808 | 55 | 270 | 1.0 | 6.0 | 0.00 | 0.00 | 0.00 | 82 | 1025.8 |
| 20260508130307 | 55 | 250 | 2.0 | 7.0 | 0.00 | 0.00 | 0.00 | 82 | 1026.1 |
| 20260508125307 | 55 | 235 | 2.0 | 3.0 | 0.00 | 0.00 | 0.00 | 81 | 1026.0 |
| 20260508124307 | 55 | 225 | 2.0 | 5.0 | 0.00 | 0.00 | 0.00 | 81 | 1026.2 |
| 20260508123807 | 55 | 204 | 3.0 | 5.0 | 0.00 | 0.00 | 0.00 | 81 | 1026.1 |
| 20260508123308 | 55 | 265 | 1.0 | 6.0 | 0.00 | 0.00 | 0.00 | 81 | 1026.2 |
| 20260508122807 | 55 | 225 | 1.0 | 5.0 | 0.00 | 0.00 | 0.00 | 81 | 1026.3 |
| 20260508122308 | 55 | 227 | 2.0 | 5.0 | 0.00 | 0.00 | 0.00 | 81 | 1026.3 |
| 20260508120807 | 54 | 250 | 1.0 | 3.0 | 0.00 | 0.00 | 0.00 | 82 | 1026.3 |
| 20260508120307 | 54 | 248 | 1.0 | 5.0 | 0.00 | 0.00 | 0.00 | 83 | 1026.3 |
| 20260508115807 | 54 | 269 | 1.0 | 3.0 | 0.00 | 0.00 | 0.00 | 83 | 1026.2 |
| 20260508114307 | 54 | 222 | 1.0 | 7.0 | 0.00 | 0.00 | 0.00 | 84 | 1026.1 |
| 20260508113807 | 54 | 249 | 2.0 | 7.0 | 0.00 | 0.00 | 0.00 | 84 | 1026.0 |
| 20260508113307 | 54 | 248 | 2.0 | 3.0 | 0.00 | 0.00 | 0.00 | 84 | 1026.0 |
| 20260508112808 | 54 | 249 | 1.0 | 3.0 | 0.00 | 0.00 | 0.00 | 84 | 1026.2 |
| 20260508111807 | 54 | 248 | 1.0 | 2.0 | 0.00 | 0.00 | 0.00 | 83 | 1025.8 |
| 20260508111308 | 55 | 204 | 1.0 | 3.0 | 0.00 | 0.00 | 0.00 | 83 | 1025.9 |
| 20260508105807 | 55 | 271 | 1.0 | 5.0 | 0.00 | 0.00 | 0.00 | 82 | 1026.0 |
| 20260508105307 | 55 | 248 | 0.0 | 3.0 | 0.00 | 0.00 | 0.00 | 81 | 1025.8 |
| 20260508104807 | 55 | 268 | 1.0 | 3.0 | 0.00 | 0.00 | 0.00 | 81 | 1025.9 |
| 20260508104307 | 55 | 270 | 1.0 | 2.0 | 0.00 | 0.00 | 0.00 | 81 | 1026.0 |
| 20260508103808 | 56 | 291 | 1.0 | 2.0 | 0.00 | 0.00 | 0.00 | 80 | 1025.8 |